Location: Caltech
(34.1382°N, 118.1253°W)
Time: 04:05:16
(UTC-07:00)

BREEZE M DEB (TANK) - Visible Passes

Search period start: 18 April 2014 00:00
Search period end: 28 April 2014 00:00
Orbit: 324 x 13871 km, 49.5° (Epoch: 17 April)

Date Brightness Start Highest point End Pass type
(mag) Time Alt. Az. Time Alt. Az. Time Alt. Az.
18 Apr 7.8 01:52:13 10° W 02:16:43 63° N 04:28:06 10° E visible
18 Apr 6.6 23:24:13 21° SW 23:33:35 86° NW 00:47:51 10° ENE visible
19 Apr 8.4 03:58:02 10° WNW 04:56:26 73° NE 06:54:24 10° SE visible
19 Apr 6.1 20:59:44 19° SSE 21:05:44 32° E 21:32:49 10° NE visible
20 Apr 7.7 01:25:10 10° W 01:46:56 63° N 03:54:32 10° E visible
20 Apr 6.4 22:55:55 10° SW 23:06:02 90° SE 00:11:55 10° ENE visible
21 Apr 8.3 03:30:31 10° WNW 04:22:20 71° NNE 06:25:19 10° SE visible
21 Apr 6.3 20:31:53 10° SSE 20:39:19 27° E 21:01:25 10° NE visible
22 Apr 7.6 00:58:04 10° W 01:17:27 63° N 03:19:42 10° E visible
22 Apr 8.8 05:38:01 10° NW 06:58:34 81° WSW 08:33:39 10° SSE visible
22 Apr 6.3 22:29:12 10° SW 22:38:33 85° SE 23:36:42 10° NE visible
23 Apr 8.3 03:02:58 10° WNW 03:48:37 69° NNE 05:55:43 10° SE visible
23 Apr 6.3 20:06:00 10° SE 20:12:51 22° E 20:30:06 10° NE visible
24 Apr 7.6 00:30:55 10° W 00:48:12 64° NNW 02:43:31 10° E visible
24 Apr 8.8 05:09:53 10° NW 06:26:39 85° WSW 08:05:54 10° SSE visible
24 Apr 6.1 22:02:25 10° SW 22:11:06 79° SE 23:02:13 10° NE visible
25 Apr 8.2 02:35:22 10° WNW 03:15:26 67° NNE 05:25:32 10° ESE visible
25 Apr 6.4 19:40:20 10° SE 19:46:20 17° E 19:58:44 10° ENE visible
26 Apr 7.5 00:03:42 10° W 00:19:10 65° NNW 02:06:02 10° E visible
26 Apr 8.7 04:41:46 10° NW 05:54:15 88° WSW 07:37:50 10° SSE visible
26 Apr 6.0 21:35:35 10° SSW 21:43:40 72° SE 22:28:26 10° NE visible
27 Apr 8.2 02:07:43 10° WNW 02:42:51 65° NNE 04:54:41 10° ESE visible
27 Apr 7.4 23:36:24 10° W 23:50:17 66° NNW 00:00:00 55° NNE visible
